Regional Weather Roundup
Issued by NWS

Home | Current Version | Previous Version | Graphics & Text | Print | Product List | Glossary On
Versions: 1 2 3 4 5 6 7 8 9 10 11 12 13 14 15 16 17 18 19 20 21 22 23 24 25 26 27 28 29 30 31 32 33 34 35 36 37 38 39 40 41 42 43 44 45 46 47 48 49 50
000
ASUS45 KPSR 160400
RWRAZ

PRELIMINARY ARIZONA REGIONAL HOURLY WEATHER ROUNDUP
NATIONAL WEATHER SERVICE PHOENIX AZ
900 PM MST MON SEP 15 2014

NOTE: FAIR INDICATES FEW OR NO CLOUDS BELOW 12,000 FEET WITH NO
SIGNIFICANT WEATHER AND/OR OBSTRUCTIONS TO VISIBILITY.

AZZ001>003-036-160500-
NORTHWEST ARIZONA

CITY           SKY/WX    TMP DP  RH WIND       PRES   REMARKS
KINGMAN        CLEAR     83  52  34 S7        30.01R
$$

AZZ004>008-015-016-018-160500-
NORTH CENTRAL ARIZONA

CITY           SKY/WX    TMP DP  RH WIND       PRES   REMARKS
GRAND CANYON   CLEAR     56  43  61 CALM      30.30R
PRESCOTT       PTCLDY    69  52  54 S5        30.16R
FLAGSTAFF      CLEAR     57  47  69 CALM      30.32R
PAYSON         MOCLDY    70  54  56 E5        30.19R
PAGE           CLEAR     83  38  20 S6        30.08R
$$

AZZ009>014-017-160500-
NORTHEAST ARIZONA

CITY           SKY/WX    TMP DP  RH WIND       PRES   REMARKS
WINSLOW        NOT AVBL
SAINT JOHNS    CLOUDY    73  51  46 S5        30.23R
WINDOW ROCK    CLOUDY    63  51  65 CALM      30.34R
$$

AZZ023-160500-
GREATER PHOENIX AREA

CITY           SKY/WX    TMP DP  RH WIND       PRES   REMARKS
PHOENIX        CLOUDY    99  57  24 NE5       29.81R
DEER VALLEY    MOCLDY    93  54  26 E5        29.83R
SCOTTSDALE     MOCLDY    95  56  26 NE8       29.86R
MESA-GATEWAY   MOCLDY    93  61  33 CALM      29.86R
CHANDLER       MOCLDY    95  61  31 NE6       29.83R
$$

AZZ027-028-160500-
SOUTHWEST MARICOPA COUNTY AND PINAL COUNTY

CITY           SKY/WX    TMP DP  RH WIND       PRES   REMARKS
CASA GRANDE    CLOUDY    91  59  33 CALM      29.86R
GILA BEND      MOCLDY    93  68  43 SW9       29.82R
$$

AZZ503-504-507>509-160500-
SOUTHEAST ARIZONA

CITY           SKY/WX    TMP DP  RH WIND       PRES   REMARKS
TUCSON         CLOUDY    84  63  49 SE6       29.99R
DAVIS-MONTHAN  CLOUDY    83  62  50 SE13      29.99R
NOGALES        CLOUDY    71  65  81 SE3       30.10R
SIERRA VISTA   MOCLDY    75  61  60 SE8       30.15R
SAFFORD        CLOUDY    84  56  38 NE16      30.04R
$$

AZZ020-021-025-026-031-160500-
SOUTHWEST ARIZONA

CITY           SKY/WX    TMP DP  RH WIND       PRES   REMARKS
YUMA           NOT AVBL
$$

CAZ031-033-041-043-047-048-061-160500-
SOUTHERN CALIFORNIA

CITY           SKY/WX    TMP DP  RH WIND       PRES   REMARKS
DOWNTOWN L.A.  CLEAR     85  61  44 CALM      29.74R
L.A. AIRPORT   CLEAR     80  61  52 SW3       29.75R
SAN DIEGO      PTCLDY    80  69  69 NW3       29.80R
BURBANK        CLEAR     93  52  24 NW3       29.78R
ONTARIO        PTCLDY    90  52  27 E3        29.80R
RIVERSIDE      CLEAR     90  53  28 NE6       29.80R
PALM SPRINGS   CLEAR    103  52  18 NW16      29.75R HX 100
EL CENTRO NAS  PTCLDY    98  59  27 CALM      29.69R
IMPERIAL       CLEAR    100  57  23 SE7       29.69R
BLYTHE         CLEAR     99  57  24 E8        29.73R
$$

NVZ020-UTZ003-160500-
SOUTHERN NEVADA-UTAH

CITY           SKY/WX    TMP DP  RH WIND       PRES   REMARKS
LAS VEGAS      NOT AVBL
SALT LAKE CITY PTCLDY    71  43  36 S7        30.07R
$$

NMZ009-TXZ055-160500-
NEW MEXICO-WEST TEXAS

CITY           SKY/WX    TMP DP  RH WIND       PRES   REMARKS
ALBUQUERQUE    CLOUDY    71  58  63 SE12      30.30R
EL PASO        CLOUDY    73  63  70 NE5       30.19R
$$


........................KEY........................
SKY/WX - SKY CONDITION/WEATHER
TMP    - TEMPERATURE IN FAHRENHEIT
DP     - DEW POINT IN FAHRENHEIT
RH     - RELATIVE HUMIDITY IN PERCENT
WIND   - DIRECTION AND SPEED IN MILES PER HOUR (MPH)
VRB    - VARIABLE WIND DIRECTION
PRES   - MEAN SEA LEVEL PRESSURE IN INCHES OF MERCURY
         F - FALLING PRESSURE   R - RISING PRESSURE
         S - STEADY PRESSURE
VSB    - VISIBILITY IN MILES
HX     - HEAT INDEX IN FAHRENHEIT
WCI    - WIND CHILL INDEX IN FAHRENHEIT
TC     - TEMPERATURE IN CELSIUS WHICH IS ALSO KNOWN AS
         TEMPERATURE IN CENTIGRADE
AFB    - AIR FORCE BASE
         LUKE AFB IS LUKE AIR FORCE BASE
         DAVIS-MONTHAN IS DAVIS-MONTHAN AIR FORCE BASE
NAS    - NAVAL AIR STATION
         EL CENTRO NAS IS EL CENTRO NAVAL AIR STATION
N/A    - NOT AVAILABLE


USA.gov is the U.S. government's official web portal to all federal, state and local government web resources and services.